Simultaneous Nadir Overpasses (SNOs) Predictions

Prediction of SNOs between NOAA-19 and NPP Satellite Orbit:

Table of predicted SNOs for the next 14.0 days since TLE Epoch: 1/17/2016
Index Date (NOAA-19) Time (NOAA-19) Lat,Lon (NOAA-19) SZA (NOAA-19 ) Date (NPP) Time (NPP) Lat,Lon (NPP) SZA (NPP ) Distance(km) Time Diff (sec)
1 01/25/2016 02:04:50 -81.03, -84.71 76.01 01/25/2016 02:05:53 -81.03, -84.65 76.04 1.18 63
2 01/25/2016 02:55:51 81.03, 82.69 103.97 01/25/2016 02:56:38 81.03, 82.74 103.94 0.92 47
3 01/25/2016 03:46:51 -81.03,-109.74 76.08 01/25/2016 03:47:22 -81.02,-109.72 76.11 0.95 31
4 01/25/2016 04:37:53 81.03, 57.29 103.94 01/25/2016 04:38:08 81.03, 57.31 103.93 0.57 15
5 01/25/2016 05:28:53 -81.03,-135.15 76.11 01/25/2016 05:28:52 -81.02,-135.16 76.11 0.59 1
6 01/25/2016
